Regional Weather Roundup
Issued by NWS

Home | Current Version | Previous Version | Text Only | Print | Product List | Glossary On
Versions: 1 2 3 4 5 6 7 8 9 10 11 12 13 14 15 16 17 18 19 20 21 22 23 24 25 26 27 28 29 30 31 32 33 34 35 36 37 38 39 40 41 42 43 44 45 46 47 48 49 50
000
ASUS44 KFWD 240615
RWRTX
NORTH TEXAS HOURLY WEATHER ROUNDUP
NATIONAL WEATHER SERVICE FORT WORTH TX
1200 AM CST MON NOV 24 2014

NOTE: "FAIR" INDICATES FEW OR NO CLOUDS BELOW 12,000 FEET WITH NO
SIGNIFICANT WEATHER AND/OR OBSTRUCTIONS TO VISIBILITY.

TXZ118-119-240700-
DALLAS/FORT WORTH METROPLEX

CITY           SKY/WX    TMP DP  RH WIND       PRES   REMARKS
DFW AIRPORT    PTCLDY    48  37  65 NW14      29.82R
6HR MIN TEMP:  48; 6HR MAX TEMP:  63;

DALLAS LOVE    PTCLDY    50  37  61 NW12      29.84R
6HR MIN TEMP:  50; 6HR MAX TEMP:  65;

FTW MEACHAM    CLEAR     49  37  63 NW10      29.83R
6HR MIN TEMP:  49; 6HR MAX TEMP:  63;

DAL-EXECUTIVE  CLEAR     50  37  61 NW15      29.82R
6HR MIN TEMP:  50; 6HR MAX TEMP:  67;

FTW-ALLIANCE   CLEAR     47  37  68 W7        29.84R
6HR MIN TEMP:  47; 6HR MAX TEMP:  61;

FTW-SPINKS     CLEAR     49  36  61 NW8       29.87R
6HR MIN TEMP:  49; 6HR MAX TEMP:  66;

ARLINGTON      CLEAR     51  36  56 NW10      29.84R
6HR MIN TEMP:  51; 6HR MAX TEMP:  67;

GRAND PRAIRIE  CLEAR     50  38  63 NW6       29.85R
6HR MIN TEMP:  50; 6HR MAX TEMP:  66;

ADDISON        CLEAR     49  41  72 NW12      29.85R
6HR MIN TEMP:  49; 6HR MAX TEMP:  64;

MESQUITE       CLEAR     50  36  60 NW18G26   29.81R
6HR MIN TEMP:  49; 6HR MAX TEMP:  67;

LANCASTER      CLEAR     49  36  59 NW16G28   29.84R
6HR MIN TEMP:  49; 6HR MAX TEMP:  66;

$$

TXZ091>094-102>105-117-120-121-131>134-240700-
NORTH CENTRAL TEXAS

CITY           SKY/WX    TMP DP  RH WIND       PRES   REMARKS
SHRMAN/DENISON CLEAR     47  39  76 NW10      29.81R
6HR MIN TEMP:  46; 6HR MAX TEMP:  61;

GAINESVILLE    CLEAR     45  37  76 NW9       29.84R WCI  40
6HR MIN TEMP:  44; 6HR MAX TEMP:  55;

BOWIE          PTCLDY    46  37  69 W8        29.84R
6HR MIN TEMP:  46; 6HR MAX TEMP:  55;

BRIDGEPORT     CLEAR     44  36  74 W6        29.88R
6HR MIN TEMP:  44; 6HR MAX TEMP:  57;

DECATUR        CLEAR     45  36  71 W8        29.85R
6HR MIN TEMP:  45; 6HR MAX TEMP:  55;

DENTON         CLEAR     45  37  73 W7        29.84R
6HR MIN TEMP:  45; 6HR MAX TEMP:  60;

MCKINNEY       CLEAR     49  36  61 NW15      29.80R
6HR MIN TEMP:  49; 6HR MAX TEMP:  63;

GREENVILLE     CLEAR     50  37  62 NW17G25   29.79R
ROCKWALL       CLEAR     49  38  67 NW20G28   29.79R
6HR MIN TEMP:  49; 6HR MAX TEMP:  65;

TERRELL        CLEAR     52  39  61 NW16G24   29.81R
6HR MIN TEMP:  52; 6HR MAX TEMP:  69;

WAXAHACHIE     CLEAR     49  39  67 NW13G21   29.85R
6HR MIN TEMP:  49; 6HR MAX TEMP:  67;

CLEBURNE       CLEAR     46  37  71 NW6       29.87R
GRANBURY       PTCLDY    49  37  63 W7        29.88R
6HR MIN TEMP:  49; 6HR MAX TEMP:  65;

$$

TXZ083>090-098>101-113>116-127>130-139>142-154-155-240700-
WESTERN NORTH TEXAS

CITY           SKY/WX    TMP DP  RH WIND       PRES   REMARKS
WICHITA FALLS  CLEAR     47  35  63 W13       29.85R
6HR MIN TEMP:  47; 6HR MAX TEMP:  53;

WF-KICKAPOO    CLEAR     49  33  54 W9        29.87R
6HR MIN TEMP:  49; 6HR MAX TEMP:  54;

VERNON         CLEAR     43  36  75 W12       29.90R WCI  37
ABILENE        PTCLDY    43  35  73 W6        29.93R WCI  39
6HR MIN TEMP:  43; 6HR MAX TEMP:  60;

ABILENE-DYESS  PTCLDY    43  35  74 W3        29.93R
6HR MIN TEMP:  43; 6HR MAX TEMP:  58;

BRECKENRIDGE   CLEAR     46  36  69 W5        29.89R
6HR MIN TEMP:  46; 6HR MAX TEMP:  60;

GRAHAM         CLEAR     44  37  78 W6        29.87R
6HR MIN TEMP:  43; 6HR MAX TEMP:  55;

MINERAL WELLS  CLEAR    N/A N/A N/A W8        29.85R
                                      6HR PCP: TRACE;

STEPHENVILLE   PTCLDY    47  36  64 W6        29.91R
6HR MIN TEMP:  47; 6HR MAX TEMP:  63;

COMANCHE       PTCLDY    47  37  70 NW6       29.90R
6HR MIN TEMP:  47; 6HR MAX TEMP:  64;

BROWNWOOD      CLOUDY    46  36  66 NW5       29.92R
COLEMAN        PTCLDY    46  38  71 NW8       29.93R
6HR MIN TEMP:  46; 6HR MAX TEMP:  62;

BRADY          CLEAR     45  36  70 NW10      29.91R WCI  39
$$

TXZ143>147-156>162-174-175-240700-
CENTRAL TEXAS

CITY           SKY/WX    TMP DP  RH WIND       PRES   REMARKS
WACO           CLEAR     51  39  63 NW15      29.85R
6HR MIN TEMP:  51; 6HR MAX TEMP:  69;

WACO-MCGREGOR  CLEAR     50  36  57 NW12      29.87R
6HR MIN TEMP:  50; 6HR MAX TEMP:  66;

HILLSBORO      CLEAR     48  38  67 NW8       29.86R
6HR MIN TEMP:  48; 6HR MAX TEMP:  67;

CORSICANA      CLEAR     52  39  61 NW14G24   29.83R
6HR MIN TEMP:  52; 6HR MAX TEMP:  70; 6HR PCP: TRACE;

MEXIA          CLEAR     51  40  65 NW13G20   29.81R
6HR MIN TEMP:  51; 6HR MAX TEMP:  70;

HEARNE         CLEAR     54  43  66 NW10      29.84R
6HR MIN TEMP:  54; 6HR MAX TEMP:  71;

CAMERON        CLEAR     55  40  59 NW15G25   29.85R
6HR MIN TEMP:  55; 6HR MAX TEMP:  73;

TEMPLE         CLEAR     52  36  54 NW18G25   29.84R
6HR MIN TEMP:  52; 6HR MAX TEMP:  70;

KILLEEN        CLEAR     50  37  60 N16G26    29.87R
6HR MIN TEMP:  50; 6HR MAX TEMP:  71;

KILLEEN-SKYLRK CLEAR     52  36  54 NW15      29.85R
6HR MIN TEMP:  52; 6HR MAX TEMP:  72;

FORT HOOD      CLEAR     54  38  54 NW16G24   29.86R
6HR MIN TEMP:  54; 6HR MAX TEMP:  75;

GATESVILLE     CLEAR     50  36  57 N12       29.89R
HAMILTON       CLEAR     46  37  69 NW8       29.90R
6HR MIN TEMP:  46; 6HR MAX TEMP:  66;

LAMPASAS       CLEAR     50  39  65 NW6       29.88R
6HR MIN TEMP:  50; 6HR MAX TEMP:  71;

$$

TXZ095>097-106>112-122>126-135>138-148>153-164>167-240700-
EAST TEXAS

CITY           SKY/WX    TMP DP  RH WIND       PRES   REMARKS
PARIS          CLOUDY    50  37  62 NW18G29   29.74R
6HR MIN TEMP:  50; 6HR MAX TEMP:  66;

SULPHUR SPRNGS CLOUDY    52  40  63 NW23      29.78R
6HR MIN TEMP:  52; 6HR MAX TEMP:  71;

MOUNT PLEASANT CLOUDY    53  42  65 NW18G26   29.74R
6HR MIN TEMP:  53; 6HR MAX TEMP:  69;

MINEOLA        CLOUDY    54  39  58 NW12      29.78R
TYLER          CLEAR     52  40  63 NW23G35   29.77R
6HR MIN TEMP:  52; 6HR MAX TEMP:  70;

LONGVIEW       CLEAR     55  43  63 W16       29.71R
6HR MIN TEMP:  55; 6HR MAX TEMP:  68;

MARSHALL       CLEAR     56  44  62 W12G24    29.72R
6HR MIN TEMP:  56; 6HR MAX TEMP:  68;

ATHENS         CLEAR     50  39  66 NW10G20   29.79R
PALESTINE      CLEAR     54  42  64 NW12G23   29.80R
JACKSONVILLE   CLEAR     55  42  61 NW16G24   29.76R
HENDERSON      CLEAR     55  42  62 W14G21    29.75R
6HR MIN TEMP:  55; 6HR MAX TEMP:  67;

NACOGDOCHES    CLEAR     57  43  58 NW13      29.74R
6HR MIN TEMP:  55; 6HR MAX TEMP:  66;

LUFKIN         CLEAR     61  46  57 W6        29.74R
6HR MIN TEMP:  61; 6HR MAX TEMP:  70;

$$

SUPPLEMENTAL OBSERVATIONS (CENTRAL)

CITY           SKY/WX    TMP DP  RH WIND       PRES   REMARKS
LAKE TEXOMA      N/A     50  39  66 NW24        N/A
CADDO GRASSLND   N/A     50  37  62 NW9G18      N/A
PAT MAYSE LAKE   N/A     48  37  66 W16         N/A
GREENVILLE       N/A     50  39  66 NW14G25     N/A
CEDAR HILL       N/A     50  37  62 NW8G17      N/A
LAKE LIMESTONE   N/A     54  39  58 NW9G20      N/A
MCGREGOR         N/A     52  39  62 N14G23      N/A
TEMPLE           N/A     52  37  58 NW5G13      N/A
$$

SUPPLEMENTAL OBSERVATIONS (WEST)



USA.gov is the U.S. government's official web portal to all federal, state and local government web resources and services.